AKDT,Max TemperatureF,Mean TemperatureF,Min TemperatureF,Max Dew PointF,MeanDew PointF,Min DewpointF,Max Humidity, Mean Humidity, Min Humidity, Max Sea Level PressureIn, Mean Sea Level PressureIn, Min Sea Level PressureIn, Max VisibilityMiles, Mean VisibilityMiles, Min VisibilityMiles, Max Wind SpeedMPH, Mean Wind SpeedMPH, Max Gust SpeedMPH,PrecipitationIn, CloudCover, Events, WindDirDegrees
2013-7-1,56,52,47,47,46,44,0,0,0,29.39,29.34,29.31,10,9,3,23,13,30,0.05,8,Rain,101
2013-7-2,50,48,45,46,45,43,0,0,0,29.50,29.41,29.34,10,8,2,20,12,24,0.31,8,Rain,126
2013-7-3,46,45,44,45,42,39,0,0,0,29.67,29.61,29.52,10,9,2,21,12,25,0.15,8,Rain,131
2013-7-4,46,44,42,43,41,39,0,0,0,29.81,29.73,29.67,10,10,9,14,8,17,0.02,8,Rain,180
2013-7-5,47,46,44,45,43,42,0,0,0,29.87,29.84,29.79,10,7,2,15,7,18,0.55,8,Rain,169
2013-7-6,58,53,47,51,47,44,0,0,0,29.85,29.78,29.70,10,10,4,14,6,17,0.10,8,Rain,39
2013-7-7,57,53,49,52,49,47,0,0,0,29.70,29.68,29.65,10,10,9,9,4,12,0.05,7,Rain,324
2013-7-8,70,60,49,53,50,46,0,0,0,29.77,29.70,29.65,10,10,7,17,5,21,0.00,5,Rain,264
2013-7-9,58,53,48,48,45,42,0,0,0,30.03,29.92,29.78,10,10,10,26,17,32,0.00,4,,268
2013-7-10,50,47,44,45,44,43,0,0,0,30.16,30.12,30.06,10,8,3,17,7,20,0.00,7,,254
2013-7-11,56,48,40,48,45,40,0,0,0,30.14,30.09,30.03,10,10,9,7,3,8,0.00,6,,202
2013-7-12,69,56,43,50,45,40,0,0,0,30.06,30.03,29.98,10,10,10,18,7,22,0.00,2,,266
2013-7-13,72,60,48,54,48,44,0,0,0,29.99,29.95,29.89,10,10,10,14,0,18,0.00,4,,140
2013-7-14,63,56,49,57,52,48,0,0,0,30.02,29.94,29.89,10,4,1,24,11,31,0.63,8,Rain,151
2013-7-15,56,52,48,54,50,47,0,0,0,30.08,30.05,30.01,10,7,2,14,8,17,0.01,8,Rain,155
2013-7-16,50,48,46,50,46,44,0,0,0,30.08,30.05,30.00,10,6,2,15,9,18,0.06,8,Rain,191
2013-7-17,48,47,45,46,44,43,0,0,0,30.10,30.08,30.05,10,8,2,13,7,16,T,8,,169
2013-7-18,55,51,46,52,48,45,0,0,0,30.11,30.09,30.07,10,8,1,18,8,21,0.01,8,Rain,108
2013-7-19,53,50,47,50,47,45,0,0,0,30.20,30.17,30.12,10,10,7,13,8,15,0.12,8,Rain,240
2013-7-20,50,48,45,48,46,44,0,0,0,30.21,30.20,30.17,10,7,1,15,9,18,0.00,8,Rain,228
2013-7-21,49,47,45,46,45,44,0,0,0,30.18,30.16,30.14,10,7,2,14,8,16,0.00,8,,220
2013-7-22,49,47,45,46,45,44,0,0,0,30.17,30.15,30.13,10,9,2,14,8,16,0.00,8,,227
2013-7-23,51,49,46,48,46,45,0,0,0,30.19,30.18,30.17,10,4,0,14,6,17,0.00,8,Fog,255
2013-7-24,59,53,47,53,48,46,0,0,0,30.20,30.17,30.14,10,7,0,12,5,13,0.00,7,Fog,222
2013-7-25,58,55,51,52,50,48,0,0,0,30.21,30.20,30.19,10,9,2,17,9,21,0.00,7,,180
2013-7-26,58,54,50,54,51,49,0,0,0,30.27,30.23,30.19,10,7,1,18,12,23,T,7,,270
2013-7-27,61,56,50,57,54,48,0,0,0,30.29,30.26,30.21,10,10,2,13,4,15,0.00,6,,169
2013-7-28,60,55,49,57,50,48,0,0,0,30.23,30.21,30.19,10,5,0,16,10,18,0.02,8,Fog-Rain,210
2013-7-29,56,54,51,52,51,49,0,0,0,30.26,30.23,30.21,10,7,2,13,6,15,0.04,8,Rain,243
2013-7-30,64,59,53,52,50,48,0,0,0,30.27,30.23,30.18,10,10,10,13,7,18,0.00,8,,244
2013-7-31,65,59,53,53,52,49,0,0,0,30.20,30.10,29.98,10,10,10,8,3,10,0.00,7,,226